Jendouba, Tunisia

3:52 AM CET on October 19, 2019 (GMT +0100)
Jendouba

Weather History for DTTN - August, 2019

Change the Weather History Date:

Friday, August 16, 2019

  Actual Average (WUND) Record (WUND)
Temperature  
Mean Temperature 78 °F -  
Max Temperature 94 °F 93 °F - (-1)
Min Temperature 63 °F 64 °F - (-1)
Cooling Degree Days 14    
Growing Degree Days 28 (Base 50)    
Moisture  
Dew Point 58 °F    
Average Humidity 48    
Maximum Humidity 77    
Minimum Humidity 21    
Precipitation  
Precipitation 0.00 in 0.03 in - ()
Sea Level Pressure  
Sea Level Pressure 30.04 in    
Wind  
Wind Speed 5 mph ()    
Max Wind Speed 9 mph    
Max Gust Speed -    
Visibility 6.3 miles    
Events      
Averages and records for this station are not official NWS values.
T = Trace of Precipitation, MM = Missing Value Source: Averaged Metar Reports

Daily Weather History Graph

Daily Weather History Graph

Search for Another Location

Airport or City:

Astronomy

Aug. 16, 2019 Rise Set
Actual Time 5:42 AM CET 7:14 PM CET
Civil Twilight 5:15 AM CET 7:42 PM CET
Nautical Twilight 4:42 AM CET 8:14 PM CET
Astronomical Twilight 4:07 AM CET 8:49 PM CET
Moon 8:06 PM CET (8/16) 6:19 AM CET (8/16)
Length of Visible Light 14h 26m
Length of Day
13h 31m
Full, 99% of the Moon is Illuminated
Aug 16
Full
Aug 23
Last Quarter
Aug 30
New
Sep 6
First Quarter
Sep 14
Full

Hourly Weather History & Observations

Time (CET) Temp. Heat Index Dew Point Humidity Pressure Visibility Wind Dir Wind Speed Gust Speed Precip Events Conditions
12:00 AM 69.8 °F - 59.0 °F 68% 30.06 in - SSW 2.3 mph - N/A   Clear
1:00 AM 66 °F - 57 °F 66% 30.09 in 6 mi SSW 4.6 mph - -  
1:00 AM - - - N/A% - - SSW 4.6 mph - N/A   Clear
2:00 AM 66.2 °F - 57.2 °F 73% 30.06 in - SW 4.6 mph - N/A   Clear
4:00 AM 64 °F - 57 °F 71% 30.06 in 6 mi SSW 4.6 mph - -  
4:00 AM 64.4 °F - 57.2 °F 77% 30.04 in - SSW 4.6 mph - N/A   Clear
5:00 AM 64.4 °F - 55.4 °F 73% 30.04 in - SW 6.9 mph - N/A   Clear
6:00 AM 64.4 °F - 57.2 °F 77% 30.06 in - SW 5.8 mph - N/A   Clear
7:00 AM 69 °F - 58 °F 59% 30.08 in 6 mi SW 6.9 mph - -  
7:00 AM 69.8 °F - 57.2 °F 64% 30.06 in - SW 6.9 mph - N/A   Clear
8:00 AM 75.2 °F - 57.2 °F 53% 30.06 in - SW 9.2 mph - N/A   Clear
9:00 AM - - - N/A% 30.09 in - SW 6.9 mph - N/A   Unknown
10:00 AM 85 °F - 57 °F 28% 30.07 in 6 mi WSW 2.3 mph - -   Scattered Clouds
10:00 AM 84.2 °F 83.5 °F 57.2 °F 40% 30.06 in 6.2 mi WSW 2.3 mph - N/A   Partly Cloudy
11:00 AM 87.8 °F 86.5 °F 57.2 °F 35% 30.06 in 6.2 mi Variable 2.3 mph - N/A   Partly Cloudy
12:00 PM 89.6 °F 89.5 °F 60.8 °F 38% 30.06 in - WNW 5.8 mph - N/A   Unknown
1:00 PM 92 °F - 60 °F 25% 30.01 in - WNW 5.8 mph - -  
1:00 PM 91.4 °F 91.4 °F 60.8 °F 36% 30.04 in 6.2 mi NW 6.9 mph - N/A   Partly Cloudy
2:00 PM 93.2 °F 93.3 °F 60.8 °F 34% 30.04 in 6.2 mi NW 8.1 mph - N/A   Partly Cloudy
3:00 PM 95.0 °F 93.0 °F 55.4 °F 26% 30.01 in 6.2 mi WNW 6.9 mph - N/A   Partly Cloudy
4:00 PM 93 °F - 58 °F 21% 29.99 in 9 mi NW 8.1 mph - -   Scattered Clouds
4:00 PM 93.2 °F 91.9 °F 57.2 °F 30% 30.01 in 6.2 mi NW 8.1 mph - N/A   Partly Cloudy
5:00 PM 93.2 °F 91.3 °F 55.4 °F 28% 30.01 in 6.2 mi WNW 8.1 mph - N/A   Partly Cloudy
6:00 PM 89.6 °F 88.1 °F 57.2 °F 33% 30.01 in 6.2 mi NW 8.1 mph - N/A   Partly Cloudy
7:00 PM 86 °F - 58 °F 29% 29.99 in 9 mi NNW 9.2 mph - -  
7:00 PM 86.0 °F 85.4 °F 59.0 °F 40% 30.01 in - NNW 9.2 mph - N/A   Clear
8:00 PM 82.4 °F 83.4 °F 62.6 °F 51% 30.04 in - NNW 6.9 mph - N/A   Clear
9:00 PM 80.6 °F 81.5 °F 60.8 °F 51% 30.04 in - NW 8.1 mph - N/A   Clear
10:00 PM 79 °F - 60 °F 42% 30.04 in 5 mi North 2.3 mph - -  
10:00 PM - - - N/A% 30.04 in 5.0 mi Variable 2.3 mph - N/A   Unknown
11:00 PM 73.4 °F - 60.8 °F 65% 30.06 in 5.0 mi ENE 3.5 mph - N/A   Unknown